Weather History for Ludington, MI

Change the Weather History Date:

Saturday, September 1, 2012

  Actual Average Record
Temperature  
Mean Temperature 64 °F -  
Max Temperature 79 °F 76 °F 90 °F (1953)
Min Temperature 48 °F 56 °F 39 °F (1991)
Degree Days  
Heating Degree Days 2    
Growing Degree Days 14 (Base 50)    
Moisture  
Dew Point 52 °F    
Average Humidity 68    
Maximum Humidity 88    
Minimum Humidity 33    
Precipitation  
Precipitation 0.00 in - - ()
Sea Level Pressure  
Sea Level Pressure 30.12 in    
Wind  
Wind Speed 2 mph (NE)    
Max Wind Speed 10 mph    
Max Gust Speed -    
Visibility 10 miles    
Events      
Averages and records for this station are not official NWS values.
T = Trace of Precipitation, MM = Missing Value Source: NWS Daily Summary

Daily Weather History Graph

Daily Weather History Graph

Search for Another Location

Airport:

Trip Planner

Search our weather history database for the weather conditions in past years. The results will help you decide how hot, cold, wet, or windy it might be!

Date:

Astronomy

Sep. 01, 2012 Rise Set
Actual Time 7:09 AM EDT 8:20 PM EDT
Civil Twilight 6:39 AM EDT 8:50 PM EDT
Nautical Twilight 6:04 AM EDT 9:25 PM EDT
Astronomical Twilight 5:26 AM EDT 10:03 PM EDT
Moon 8:31 PM EDT 8:21 AM EDT
Length of Visible Light 14h 10m
Length of Day
13h 11m
Full, 99% of the Moon is Illuminated
Sep 1
Full
Sep 8
Last Quarter
Sep 15
New
Sep 22
First Quarter
Sep 29
Full

Hourly Weather History & Observations

Time (EDT) Temp. Dew Point Humidity Pressure Visibility Wind Dir Wind Speed Gust Speed Precip Events Conditions
12:15 AM 58.1 °F 48.7 °F 71% 30.12 in 10.0 mi Calm Calm - N/A   Clear
12:35 AM 58.1 °F 49.8 °F 74% 30.12 in 10.0 mi Calm Calm - N/A   Clear
12:55 AM 55.8 °F 48.2 °F 76% 30.13 in 10.0 mi Calm Calm - N/A   Clear
1:15 AM 55.6 °F 48.6 °F 77% 30.14 in 10.0 mi Calm Calm - N/A   Clear
1:35 AM 55.6 °F 47.7 °F 75% 30.14 in 10.0 mi Calm Calm - N/A   Clear
1:55 AM 55.6 °F 47.5 °F 74% 30.14 in 10.0 mi Calm Calm - N/A   Clear
2:15 AM 55.6 °F 48.2 °F 76% 30.15 in 10.0 mi Calm Calm - N/A   Clear
2:35 AM 53.2 °F 47.5 °F 81% 30.15 in 10.0 mi Calm Calm - N/A   Clear
2:54 AM 52.7 °F 47.5 °F 82% 30.15 in 10.0 mi Calm Calm - N/A   Clear
3:15 AM 52.9 °F 48.7 °F 86% 30.15 in 10.0 mi Calm Calm - N/A   Clear
3:35 AM 48.7 °F 44.6 °F 86% 30.15 in 10.0 mi Calm Calm - N/A   Clear
3:54 AM 48.9 °F 45.3 °F 87% 30.16 in 10.0 mi Calm Calm - N/A   Clear
4:15 AM 50.0 °F 46.6 °F 88% 30.16 in 10.0 mi Calm Calm - N/A   Clear
4:35 AM 49.3 °F 45.9 °F 88% 30.15 in 10.0 mi Calm Calm - N/A   Clear
4:54 AM 48.2 °F 44.6 °F 87% 30.16 in 10.0 mi Calm Calm - N/A   Clear
5:15 AM 48.2 °F 44.6 °F 87% 30.15 in 10.0 mi Calm Calm - N/A   Clear
5:35 AM 48.2 °F 44.6 °F 87% 30.16 in 10.0 mi Calm Calm - N/A   Clear
5:55 AM 48.2 °F 44.8 °F 88% 30.15 in 10.0 mi NE 3.5 mph - N/A   Clear
6:15 AM 48.6 °F 45.0 °F 87% 30.15 in 10.0 mi NE 3.5 mph - N/A   Clear
6:35 AM 52.0 °F 47.8 °F 86% 30.16 in 10.0 mi ESE 3.5 mph - N/A   Clear
6:55 AM 51.8 °F 47.1 °F 84% 30.16 in 10.0 mi Calm Calm - N/A   Clear
7:15 AM 48.2 °F 44.6 °F 87% 30.15 in 10.0 mi NE 4.6 mph - N/A   Clear
7:35 AM 48.2 °F 44.4 °F 87% 30.16 in 10.0 mi Calm Calm - N/A   Clear
7:55 AM 49.6 °F 46.2 °F 88% 30.16 in 10.0 mi East 3.5 mph - N/A   Clear
8:15 AM 53.1 °F 48.6 °F 85% 30.15 in 10.0 mi NNE 4.6 mph - N/A   Clear
8:34 AM 55.6 °F 49.5 °F 80% 30.16 in 7.0 mi East 3.5 mph - N/A   Clear
8:55 AM 58.1 °F 50.9 °F 77% 30.15 in 10.0 mi NE 3.5 mph - N/A   Clear
9:15 AM 60.8 °F 50.9 °F 70% 30.15 in 10.0 mi ENE 3.5 mph - N/A   Clear
9:34 AM 63.1 °F 52.2 °F 67% 30.15 in 10.0 mi East 3.5 mph - N/A   Clear
9:55 AM 68.2 °F 55.6 °F 64% 30.15 in 10.0 mi Calm Calm - N/A   Clear
10:15 AM 68.2 °F 54.7 °F 62% 30.15 in 10.0 mi NNE 8.1 mph - N/A   Clear
10:34 AM 69.4 °F 54.3 °F 59% 30.14 in 10.0 mi NE 10.4 mph - N/A   Clear
10:55 AM 70.7 °F 54.3 °F 56% 30.15 in 10.0 mi NE 10.4 mph - N/A   Clear
11:15 AM 73.4 °F 55.4 °F 53% 30.15 in 10.0 mi East 9.2 mph - N/A   Clear
11:35 AM 73.4 °F 54.7 °F 52% 30.14 in 10.0 mi ENE 4.6 mph - N/A   Clear
11:55 AM 73.4 °F 53.2 °F 49% 30.14 in 10.0 mi East 6.9 mph - N/A   Clear
12:15 PM 73.4 °F 51.6 °F 46% 30.14 in 10.0 mi East 4.6 mph - N/A   Clear
12:35 PM 75.2 °F 52.0 °F 44% 30.13 in 10.0 mi East 5.8 mph - N/A   Clear
12:55 PM 75.7 °F 50.9 °F 42% 30.13 in 10.0 mi ENE 6.9 mph - N/A   Clear
1:15 PM 76.6 °F 49.5 °F 38% 30.13 in 10.0 mi NE 8.1 mph - N/A   Clear
1:35 PM 77.9 °F 48.9 °F 36% 30.12 in 10.0 mi ENE 6.9 mph - N/A   Clear
1:55 PM 78.3 °F 47.8 °F 34% 30.12 in 10.0 mi ENE 8.1 mph - N/A   Clear
2:15 PM 78.3 °F 46.8 °F 33% 30.12 in 10.0 mi ENE 3.5 mph - N/A   Clear
2:35 PM 79.3 °F 48.2 °F 33% 30.11 in 10.0 mi SE 4.6 mph - N/A   Clear
3:15 PM 75.7 °F 58.8 °F 56% 30.11 in 10.0 mi WNW 5.8 mph - N/A   Clear
3:35 PM 75.7 °F 59.5 °F 57% 30.11 in 10.0 mi NW 9.2 mph - N/A   Clear
4:15 PM 75.7 °F 58.8 °F 56% 30.09 in 10.0 mi North 5.8 mph - N/A   Clear
4:35 PM 75.7 °F 56.8 °F 52% 30.07 in 10.0 mi NNW 9.2 mph - N/A   Clear
5:15 PM 75.7 °F 56.3 °F 51% 30.07 in 10.0 mi NW 5.8 mph - N/A   Clear
5:35 PM 75.7 °F 57.0 °F 52% 30.06 in 10.0 mi NNW 9.2 mph - N/A   Clear
5:54 PM 75.2 °F 57.4 °F 54% 30.05 in 10.0 mi North 9.2 mph - N/A   Clear
6:15 PM 75.7 °F 57.2 °F 52% 30.05 in 10.0 mi North 5.8 mph - N/A   Clear
6:34 PM 73.4 °F 57.0 °F 56% 30.05 in 10.0 mi North 3.5 mph - N/A   Clear
6:55 PM 73.4 °F 58.1 °F 59% 30.05 in 10.0 mi Calm Calm - N/A   Clear
7:15 PM 73.4 °F 58.8 °F 60% 30.05 in 10.0 mi Calm Calm - N/A   Clear
7:34 PM 73.4 °F 56.8 °F 56% 30.06 in 10.0 mi SSW 4.6 mph - N/A   Clear
7:55 PM 73.4 °F 56.7 °F 56% 30.06 in 10.0 mi South 4.6 mph - N/A   Clear
8:15 PM 73.4 °F 58.8 °F 60% 30.06 in 10.0 mi Calm Calm - N/A   Clear
8:34 PM 68.2 °F 57.6 °F 69% 30.06 in 10.0 mi Calm Calm - N/A   Clear
8:55 PM 65.5 °F 58.1 °F 77% 30.07 in 10.0 mi Calm Calm - N/A   Clear
9:15 PM 63.1 °F 57.4 °F 81% 30.07 in 10.0 mi Calm Calm - N/A   Clear
9:35 PM 60.8 °F 55.8 °F 83% 30.07 in 10.0 mi Calm Calm - N/A   Clear
9:55 PM 59.9 °F 54.1 °F 81% 30.07 in 10.0 mi NE 3.5 mph - N/A   Clear
10:15 PM 61.5 °F 53.6 °F 75% 30.07 in 10.0 mi NE 3.5 mph - N/A   Clear
10:35 PM 61.0 °F 53.4 °F 76% 30.07 in 10.0 mi NE 3.5 mph - N/A   Clear
10:55 PM 60.8 °F 53.6 °F 77% 30.07 in 10.0 mi Calm Calm - N/A   Clear
11:15 PM 60.4 °F 53.8 °F 79% 30.07 in 10.0 mi Calm Calm - N/A   Clear
11:35 PM 59.4 °F 53.2 °F 80% 30.07 in 10.0 mi Calm Calm - N/A   Clear
11:55 PM 58.6 °F 52.7 °F 81% 30.07 in 10.0 mi NE 3.5 mph - N/A   Clear